Wind_Speed
10 9 8 8 8 8 8 8 8 7 7 7 7 7 7 7 6 6 6 5 5 6 6 7 6 6 5 4 4 3 3 3 3 3 4 4 4 3 3 2 2 2 3
11 11 9 9 9 9 9 9 9 9 9 8 8 8 8 7 7 6 6 5 5 7 7 7 7 7 6 5 5 5 4 4 4 4 4 4 4 4 4 4 4 4 4
12 12 11 10 10 10 10 10 10 10 10 9 8 8 8 8 7 7 7 7 7 7 8 8 8 8 7 7 6 6 5 5 5 5 5 5 5 6 5 5 5 5 5
13 13 13 12 12 11 11 11 11 11 11 10 9 9 9 9 8 8 8 8 8 8 9 9 9 9 9 8 8 7 6 6 6 6 6 6 6 6 7 7 6 6 6
14 15 15 14 14 14 13 12 12 11 11 11 11 11 11 11 10 9 9 9 9 9 10 10 10 10 10 9 9 8 8 7 7 7 7 7 7 8 8 8 7 7 7
16 17 16 16 15 15 14 12 12 12 11 10 10 11 12 12 12 11 10 10 10 9 10 10 10 10 10 10 9 10 9 9 8 8 8 8 8 9 9 9 9 9 8
17 17 16 16 16 15 14 12 12 12 12 11 10 10 11 12 12 11 10 10 9 9 10 10 10 10 11 11 11 11 11 10 10 9 10 10 10 10 10 11 10 10 10
17 17 16 16 15 14 13 12 11 12 11 11 10 10 10 11 11 10 10 10 10 10 10 10 10 11 11 12 12 12 11 12 11 11 11 11 11 11 11 12 12 12 12
17 16 16 15 15 15 14 13 12 12 11 11 10 11 11 11 11 10 9 10 10 11 11 11 11 11 11 12 13 13 14 14 13 13 13 13 13 13 13 13 13 13 14
17 16 16 16 16 15 14 13 13 12 12 12 12 12 12 12 11 10 10 11 11 11 12 13 13 13 13 14 14 14 15 15 14 14 14 14 14 14 14 14 14 15 15
17 17 16 16 16 15 14 13 13 12 12 12 12 13 13 12 11 10 10 10 10 10 12 13 14 14 14 14 15 15 15 15 15 16 15 15 16 16 16 16 16 16 16
17 17 16 16 16 16 15 14 14 14 13 13 13 13 13 12 11 11 11 11 11 11 11 12 13 14 15 15 15 15 15 16 16 17 16 16 17 17 18 18 17 17 17
19 17 17 17 17 16 16 15 15 15 15 14 14 14 13 12 12 12 11 12 12 12 12 12 12 13 14 15 16 16 16 16 16 17 17 17 17 18 18 18 18 18 18
19 18 17 17 17 17 17 16 16 16 15 15 14 14 13 13 12 12 11 11 12 12 13 13 13 13 14 14 15 16 17 17 17 17 17 18 17 18 18 18 19 19 19
19 19 19 18 18 18 18 18 17 17 16 15 15 14 13 13 13 12 12 13 13 13 13 14 14 14 15 15 16 16 17 17 17 18 19 20 19 19 19 19 20 20 20
20 20 20 19 19 19 19 18 18 18 17 17 16 15 15 14 14 14 14 14 14 14 15 15 16 16 16 16 17 18 18 18 18 19 19 20 20 20 21 21 21 22 22
20 20 20 19 18 18 18 18 17 17 17 17 17 16 16 15 15 15 15 15 16 16 16 17 17 17 17 18 19 19 19 19 19 19 20 21 21 21 22 23 23 23 24
22 21 21 19 18 18 18 17 17 17 17 17 16 16 16 15 15 16 16 17 17 17 17 18 18 18 17 18 18 18 18 19 19 20 21 21 21 23 23 23 23 22 23
23 22 21 20 19 18 18 18 18 17 18 17 17 16 17 17 16 16 17 17 17 17 17 18 18 17 17 17 18 18 19 19 20 20 21 21 22 23 23 23 23 24 24
25 24 23 22 21 19 19 18 18 18 18 18 17 17 18 17 17 17 17 17 17 18 18 18 18 18 17 18 18 19 20 20 21 22 22 22 22 23 23 23 23 23 24
25 25 24 23 22 21 20 20 19 19 19 19 18 18 18 18 18 17 18 18 18 18 19 19 18 18 18 18 18 19 20 21 21 22 22 22 23 22 23 23 24 25 25
25 25 24 24 23 22 21 20 20 20 20 19 18 17 17 17 17 17 18 18 19 18 19 19 19 20 20 19 20 20 21 21 21 21 22 22 23 23 23 24 25 26 26
25 25 24 24 23 22 21 21 20 20 19 19 19 18 17 17 17 17 18 18 18 18 18 19 20 20 20 20 20 20 21 21 22 22 22 23 24 25 25 25 26 27 27
24 24 24 23 22 22 22 21 21 20 20 20 19 19 18 18 18 18 18 18 18 18 18 18 19 20 20 21 20 21 22 22 22 23 24 24 25 25 26 26 26 27 27
23 23 23 22 22 22 22 21 21 21 21 21 20 19 19 19 19 19 19 20 20 20 19 19 19 19 20 21 21 22 22 23 24 24 25 25 25 26 26 27 27 28 28
25 24 24 23 22 21 21 21 22 21 21 22 21 21 21 20 20 20 20 20 21 21 20 19 20 20 21 22 22 23 24 24 24 25 25 26 27 27 28 28 29 30 30
Wind_Direction
283 288 294 300 298 303 309 310 301 307 310 306 296 293 294 288 281 276 271 252 243 237 232 232 238 238 240 243 248 239 242 251 264 275 283 288 291 296 301 298 285 273 276
281 281 286 290 294 294 301 305 302 302 303 303 293 292 294 288 280 272 262 249 247 240 235 235 235 236 239 243 249 251 254 264 273 277 280 282 287 290 293 290 284 278 276
272 275 278 282 288 291 294 299 299 300 300 302 298 290 284 284 277 264 258 254 252 247 244 241 239 238 240 245 251 258 263 267 274 277 279 280 285 287 288 290 285 279 278
265 268 271 275 280 284 290 295 298 298 299 297 294 291 283 279 276 269 262 262 261 253 249 247 247 246 245 249 253 256 262 266 275 279 278 280 284 284 284 283 285 282 279
259 263 268 271 276 281 285 289 290 295 297 300 293 286 284 281 275 271 270 265 262 260 256 254 253 251 250 252 255 255 259 264 273 279 279 278 278 278 278 280 282 282 280
259 260 264 267 272 278 280 282 286 292 294 296 294 286 284 284 279 270 270 268 264 261 259 255 254 255 252 252 254 255 257 264 269 273 277 278 277 275 272 275 280 281 281
257 259 261 266 273 274 273 275 281 287 288 291 294 293 288 289 287 274 268 266 263 261 263 259 256 258 256 255 254 254 257 262 267 271 275 274 275 277 275 273 275 276 278
252 255 257 262 267 270 272 274 276 280 284 286 292 295 294 297 295 280 270 265 260 261 263 262 261 259 257 256 256 255 260 265 265 269 273 274 276 278 280 277 273 272 275
246 250 252 257 262 266 270 272 274 275 278 281 290 297 297 296 294 283 279 274 264 261 262 261 264 263 261 261 260 259 262 267 267 270 275 275 276 279 278 277 275 275 274
243 246 251 255 258 262 267 271 272 272 274 277 283 290 297 297 292 286 281 280 272 269 267 264 265 264 262 262 262 262 264 269 268 271 275 276 276 279 278 279 279 278 276
243 246 247 250 253 257 264 269 269 270 273 277 281 288 294 294 289 286 283 281 279 277 274 269 268 265 265 265 265 265 263 268 270 273 274 276 276 278 279 279 278 279 278
243 245 244 246 250 255 259 265 268 269 271 273 279 286 289 289 289 286 283 280 281 283 281 278 274 269 266 264 264 264 265 269 273 273 274 276 275 277 278 278 277 278 278
242 244 244 246 249 253 257 261 265 267 269 272 278 282 284 285 286 286 282 283 283 284 281 279 276 272 270 268 263 265 267 271 276 276 275 276 276 278 277 277 279 279 278
242 244 244 247 251 252 254 257 260 263 268 271 275 278 279 280 282 282 281 286 285 285 283 280 277 276 274 270 267 266 267 270 273 276 275 278 281 280 277 277 278 279 278
241 243 244 248 251 253 254 257 259 262 266 269 272 274 276 279 279 281 281 283 283 284 283 282 281 279 275 270 268 268 270 272 273 275 277 278 280 281 279 278 278 278 279
240 240 241 247 251 253 255 256 257 260 263 267 270 270 273 276 277 278 279 281 281 283 284 283 281 279 276 272 270 269 269 272 272 275 279 281 280 279 279 279 279 278 278
236 236 239 245 250 251 251 252 255 259 264 268 271 273 275 276 275 275 276 278 281 281 282 282 281 280 276 274 271 270 270 272 274 276 279 282 282 280 278 278 280 278 277
231 232 235 240 246 250 250 250 253 257 261 266 270 272 273 276 279 277 276 279 281 282 282 281 280 280 277 276 272 271 271 272 275 278 281 283 281 281 279 279 279 280 280
231 234 236 239 245 249 250 251 253 257 262 263 267 270 272 274 275 276 276 278 280 282 283 281 279 279 279 278 274 271 270 271 274 277 279 279 281 282 281 280 279 279 280
232 235 237 238 242 246 249 251 253 257 263 265 265 266 270 272 273 274 276 278 279 280 281 280 279 278 278 277 276 274 272 271 273 275 277 280 284 284 283 281 281 281 282
233 235 236 238 242 245 248 250 253 257 263 265 263 265 269 271 273 275 276 278 279 280 280 280 278 277 277 277 277 279 279 276 276 279 282 284 285 287 286 284 282 283 285
232 234 236 239 242 244 246 249 254 258 260 261 262 264 268 270 273 275 277 280 278 279 280 279 278 277 277 277 279 280 281 280 279 281 284 285 285 286 287 287 285 285 286
233 235 237 240 241 243 246 249 253 256 257 259 260 262 267 271 273 276 279 282 282 281 283 280 278 278 279 278 279 280 281 280 282 282 282 285 287 288 288 288 288 288 289
231 234 237 239 240 243 246 248 251 254 257 259 260 261 265 270 273 276 279 282 284 283 282 281 280 279 279 279 280 282 284 284 285 283 283 286 288 290 290 290 291 291 291
230 232 235 239 241 243 244 246 250 254 256 259 261 261 265 269 273 276 279 281 281 282 282 281 281 282 281 280 280 283 285 287 285 285 286 288 289 291 292 292 292 291 293
229 232 236 239 241 243 244 247 253 257 258 260 260 262 264 268 271 274 277 279 281 282 281 280 280 281 281 279 280 281 283 284 285 287 288 289 290 291 292 292 293 293 293
Height
5913 5913 5912 5912 5911 5910 5910 5909 5908 5907 5906 5905 5904 5904 5903 5903 5903 5903 5902 5902 5903 5903 5903 5904 5905 5905 5906 5906 5906 5906 5906 5907 5906 5906 5906 5906 5906 5905 5905 5905 5905 5904 5904
5911 5911 5911 5910 5910 5909 5908 5908 5906 5906 5905 5904 5903 5902 5902 5902 5901 5901 5901 5901 5901 5901 5902 5903 5904 5904 5905 5905 5906 5906 5906 5906 5906 5906 5906 5905 5906 5905 5905 5904 5904 5904 5904
5910 5909 5909 5909 5908 5908 5907 5906 5905 5905 5904 5903 5901 5901 5900 5900 5900 5900 5900 5900 5900 5900 5900 5901 5902 5903 5904 5904 5905 5905 5905 5905 5905 5905 5905 5905 5904 5904 5904 5904 5903 5903 5903
5907 5907 5907 5907 5906 5906 5905 5905 5904 5903 5902 5901 5900 5899 5898 5898 5899 5899 5899 5899 5899 5899 5899 5900 5901 5902 5902 5903 5903 5904 5904 5904 5904 5904 5904 5904 5903 5903 5903 5903 5902 5902 5902
5905 5905 5905 5904 5904 5904 5903 5903 5902 5901 5900 5899 5898 5898 5897 5897 5897 5897 5897 5897 5897 5897 5898 5899 5899 5900 5901 5901 5902 5902 5903 5903 5903 5903 5903 5902 5902 5901 5901 5901 5901 5900 5900
5901 5902 5902 5902 5902 5901 5901 5901 5900 5899 5899 5897 5896 5896 5895 5895 5895 5895 5895 5895 5895 5896 5896 5897 5897 5898 5898 5899 5900 5900 5901 5901 5901 5901 5901 5901 5900 5900 5899 5899 5899 5898 5898
5898 5899 5899 5899 5899 5898 5899 5898 5898 5897 5897 5896 5895 5894 5894 5893 5893 5892 5892 5893 5893 5894 5894 5895 5895 5896 5896 5897 5898 5898 5898 5899 5899 5899 5899 5899 5898 5898 5897 5897 5896 5896 5896
5895 5895 5896 5896 5896 5896 5896 5896 5896 5895 5895 5894 5894 5893 5892 5891 5890 5890 5890 5890 5891 5891 5892 5893 5893 5893 5894 5895 5895 5896 5896 5896 5896 5897 5897 5896 5896 5895 5895 5894 5894 5893 5893
5891 5892 5892 5893 5893 5894 5894 5894 5894 5893 5893 5893 5892 5891 5890 5890 5889 5888 5888 5889 5889 5890 5890 5890 5891 5891 5892 5892 5892 5893 5893 5894 5894 5894 5894 5893 5893 5892 5892 5891 5891 5891 5890
5887 5888 5889 5889 5890 5891 5891 5891 5891 5891 5891 5891 5890 5890 5889 5888 5887 5886 5886 5887 5887 5887 5887 5887 5888 5888 5888 5889 5889 5890 5890 5890 5890 5890 5890 5890 5889 5889 5888 5887 5887 5887 5886
5883 5884 5885 5886 5887 5887 5888 5889 5889 5889 5889 5889 5888 5887 5886 5885 5885 5884 5884 5884 5884 5885 5884 5884 5885 5885 5885 5885 5885 5886 5886 5887 5887 5887 5886 5886 5886 5885 5884 5884 5883 5882 5882
5879 5880 5881 5882 5883 5884 5885 5885 5886 5886 5886 5886 5885 5884 5883 5883 5882 5882 5882 5882 5882 5882 5882 5881 5881 5881 5881 5881 5882 5882 5883 5883 5883 5883 5882 5882 5882 5881 5880 5879 5879 5878 5878
5875 5876 5878 5879 5880 5881 5881 5882 5883 5883 5883 5883 5882 5881 5881 5880 5880 5880 5879 5879 5879 5879 5879 5878 5877 5877 5877 5878 5878 5878 5879 5879 5879 5878 5878 5877 5877 5876 5876 5875 5874 5874 5873
5871 5872 5874 5875 5876 5877 5878 5879 5879 5880 5880 5879 5879 5878 5878 5878 5877 5877 5877 5877 5877 5876 5876 5875 5874 5874 5874 5874 5874 5875 5875 5875 5875 5874 5874 5873 5872 5872 5871 5870 5870 5869 5869
5866 5868 5869 5871 5872 5873 5874 5875 5876 5876 5876 5876 5876 5875 5875 5875 5875 5875 5875 5874 5874 5873 5873 5872 5871 5870 5870 5870 5871 5871 5871 5870 5870 5870 5869 5869 5868 5867 5867 5866 5865 5864 5863
5862 5863 5865 5866 5868 5869 5869 5871 5871 5872 5873 5873 5873 5872 5872 5872 5872 5872 5872 5871 5871 5870 5869 5868 5868 5867 5867 5866 5866 5866 5866 5866 5865 5865 5865 5864 5863 5862 5862 5860 5860 5859 5858
5857 5859 5861 5862 5863 5864 5865 5866 5867 5868 5869 5869 5869 5869 5869 5869 5868 5868 5868 5868 5867 5866 5865 5865 5864 5863 5862 5862 5862 5861 5861 5861 5861 5860 5860 5859 5858 5857 5856 5855 5854 5853 5852
5852 5854 5856 5858 5859 5860 5860 5862 5863 5864 5864 5865 5865 5865 5865 5865 5865 5864 5864 5864 5863 5862 5861 5860 5860 5859 5858 5857 5857 5856 5856 5856 5856 5855 5855 5853 5852 5851 5850 5848 5848 5847 5846
5847 5849 5851 5853 5854 5855 5857 5858 5859 5860 5860 5860 5861 5861 5861 5861 5861 5860 5860 5859 5858 5857 5856 5856 5855 5854 5853 5852 5852 5852 5852 5851 5851 5850 5849 5848 5847 5846 5844 5843 5842 5841 5839
5841 5844 5846 5848 5850 5851 5852 5853 5855 5856 5856 5856 5857 5857 5857 5857 5856 5856 5855 5854 5854 5853 5852 5851 5850 5850 5849 5848 5848 5847 5847 5846 5845 5844 5843 5842 5841 5840 5838 5837 5836 5834 5833
5835 5838 5840 5842 5844 5846 5848 5849 5850 5851 5852 5852 5853 5853 5853 5853 5852 5852 5851 5850 5849 5848 5847 5847 5846 5845 5845 5844 5843 5842 5841 5840 5840 5839 5838 5836 5835 5834 5832 5831 5829 5828 5826
5829 5832 5834 5837 5839 5841 5842 5844 5845 5846 5847 5847 5848 5848 5848 5848 5847 5847 5846 5845 5844 5844 5843 5842 5841 5841 5840 5839 5838 5837 5836 5835 5834 5833 5832 5831 5830 5828 5826 5825 5823 5821 5819
5823 5826 5828 5831 5833 5835 5837 5838 5840 5841 5841 5842 5843 5843 5843 5843 5843 5842 5842 5841 5839 5839 5838 5837 5837 5836 5835 5834 5833 5832 5831 5830 5829 5828 5827 5825 5824 5822 5820 5818 5816 5814 5812
5818 5820 5823 5825 5827 5829 5831 5833 5834 5835 5836 5837 5837 5837 5838 5838 5838 5837 5837 5836 5835 5834 5833 5832 5832 5831 5830 5829 5828 5827 5825 5824 5823 5822 5820 5819 5817 5815 5813 5811 5809 5806 5804
5812 5815 5817 5819 5822 5824 5825 5827 5828 5830 5831 5831 5832 5832 5832 5833 5833 5832 5832 5831 5830 5829 5828 5827 5826 5825 5825 5824 5823 5821 5820 5818 5817 5815 5814 5812 5810 5808 5806 5804 5801 5799 5797
5807 5809 5812 5814 5816 5818 5820 5821 5823 5824 5825 5826 5826 5827 5827 5827 5827 5826 5826 5825 5825 5824 5823 5821 5821 5820 5819 5818 5817 5816 5814 5813 5811 5809 5807 5805 5803 5801 5799 5796 5794 5791 5788